This is the latest recevied weather packets stored in our database for station/object OE3AOG. If no packets are shown the sender has not sent any weather packets the latest 1 day(s).
| Time | Temp. | Humidity | Pressure | Rain* | Wind** | Luminosity | Snow |
|---|---|---|---|---|---|---|---|
| 1778019331 | 13.89° C | 63% | 1004.8 hPa | 0 mm | 0.45 m/s, 140° | 0 W/m² | - |
| 1778018723 | 13.89° C | 63% | 1004.8 hPa | 0 mm | 0.45 m/s, 135° | 0 W/m² | - |
| 1778018131 | 13.89° C | 63% | 1004.6 hPa | 0 mm | 0.45 m/s, 141° | 0 W/m² | - |
| 1778017523 | 14.44° C | 62% | 1004.6 hPa | 0 mm | 0.45 m/s, 39° | 0 W/m² | - |
| 1778016931 | 14.44° C | 61% | 1004.5 hPa | 0 mm | 0.89 m/s, 110° | 0 W/m² | - |
| 1778016331 | 16.11° C | 57% | 1004.4 hPa | 0 mm | 0.45 m/s, 23° | 0 W/m² | - |
| 1778015723 | 17.22° C | 52% | 1004.3 hPa | 0 mm | 0 m/s | 0 W/m² | - |
| 1778015131 | 17.22° C | 51% | 1004.1 hPa | 0 mm | 0.89 m/s, 154° | 0 W/m² | - |
| 1778014523 | 17.78° C | 51% | 1004 hPa | 0 mm | 1.34 m/s, 164° | 0 W/m² | - |
| 1778013931 | 17.78° C | 50% | 1003.8 hPa | 0 mm | 2.24 m/s, 167° | 0 W/m² | - |
| 1778013322 | 17.78° C | 50% | 1003.7 hPa | 0 mm | 2.24 m/s, 173° | 0 W/m² | - |
| 1778012731 | 17.78° C | 50% | 1003.7 hPa | 0 mm | 2.24 m/s, 168° | 0 W/m² | - |
| 1778012123 | 17.78° C | 50% | 1003.6 hPa | 0 mm | 2.24 m/s, 175° | 0 W/m² | - |
| 1778011531 | 18.33° C | 50% | 1003.6 hPa | 0 mm | 2.24 m/s, 176° | 0 W/m² | - |
| 1778010923 | 18.33° C | 49% | 1003.6 hPa | 0 mm | 2.24 m/s, 178° | 0 W/m² | - |
| 1778010315 | 18.33° C | 49% | 1003.7 hPa | 0 mm | 2.68 m/s, 175° | 0 W/m² | - |
| 1778009724 | 18.33° C | 49% | 1003.5 hPa | 0 mm | 2.68 m/s, 176° | 0 W/m² | - |
| 1778009131 | 18.33° C | 49% | 1003.4 hPa | 0 mm | 2.24 m/s, 170° | 0 W/m² | - |
| 1778008523 | 18.89° C | 48% | 1003.4 hPa | 0 mm | 2.68 m/s, 177° | 0 W/m² | - |
| 1778007936 | 18.89° C | 48% | 1003.3 hPa | 0 mm | 2.68 m/s, 175° | 0 W/m² | - |
| 1778007323 | 18.89° C | 47% | 1003.4 hPa | 0 mm | 2.68 m/s, 177° | 0 W/m² | - |
| 1778006724 | 19.44° C | 46% | 1003.4 hPa | 0 mm | 3.58 m/s, 181° | 0 W/m² | - |
| 1778006131 | 19.44° C | 46% | 1003.3 hPa | 0 mm | 2.68 m/s, 169° | 0 W/m² | - |
| 1778005524 | 19.44° C | 46% | 1003.2 hPa | 0 mm | 3.13 m/s, 170° | 1 W/m² | - |
| 1778004932 | 20° C | 45% | 1003.2 hPa | 0 mm | 3.58 m/s, 160° | 3 W/m² | - |
* Rain latest hour (hover to see other rain measurements)
** Current wind speed in m/s (hover to see current wind gust speed)